Location: Burland Observatory
(39.4088°N, 105.4217°W)
Time: 05:53:11
(UTC-07:00)

Vanguard 2 - Visible Passes

Search period start: 10 December 2019 00:00
Search period end: 20 December 2019 00:00
Orbit: 553 x 2938 km, 32.9° (Epoch: 09 December)

Date Brightness Start Highest point End Pass type
(mag) Time Alt. Az. Time Alt. Az. Time Alt. Az.
10 Dec 11.4 00:55:51 24° E 00:55:51 24° E 01:01:29 10° E visible
10 Dec 10.2 02:57:15 67° SSE 02:57:15 67° SSE 03:13:42 10° E visible
10 Dec 10.3 04:58:39 30° W 05:09:32 66° SSW 05:23:59 10° ESE visible
11 Dec 11.3 01:12:38 29° E 01:12:38 29° E 01:19:47 10° E visible
11 Dec 10.2 03:14:01 69° SSW 03:15:00 70° S 03:31:44 10° E visible
11 Dec 10.4 05:15:26 25° W 05:27:30 62° SSW 05:41:43 10° ESE visible
12 Dec 11.1 01:29:23 35° E 01:29:23 35° E 01:38:01 10° E visible
12 Dec 10.2 03:30:47 66° SW 03:33:06 70° S 03:49:44 10° ESE visible
12 Dec 10.5 05:32:11 20° W 05:45:22 56° SSW 05:59:19 10° SE visible
13 Dec 10.9 01:46:08 41° ESE 01:46:08 41° ESE 01:56:10 10° E visible
13 Dec 10.2 03:47:32 59° SW 03:51:11 69° S 04:07:42 10° ESE visible
13 Dec 10.6 05:48:56 16° W 06:03:08 49° SSW 06:16:42 10° SE visible
14 Dec 10.7 02:02:54 48° ESE 02:02:54 48° ESE 02:14:19 10° E visible
14 Dec 10.3 04:04:18 52° WSW 04:09:15 65° SSW 04:25:32 10° ESE visible
14 Dec 10.8 06:05:42 12° W 06:20:46 42° SSW 06:33:53 10° SSE visible
15 Dec 11.8 00:18:16 13° E 00:18:16 13° E 00:19:34 10° E visible
15 Dec 10.5 02:19:40 54° ESE 02:19:40 54° ESE 02:32:25 10° E visible
15 Dec 10.4 04:21:04 45° WSW 04:27:13 61° SSW 04:43:15 10° ESE visible
15 Dec 11.0 06:23:23 10° W 06:38:17 35° SW 06:50:44 10° SSE visible
16 Dec 11.7 00:35:03 17° E 00:35:03 17° E 00:37:49 10° E visible
16 Dec 10.4 02:36:27 60° SE 02:36:27 60° SE 02:50:27 10° ESE visible
16 Dec 10.5 04:37:51 38° WSW 04:45:08 55° SSW 05:00:48 10° SE visible
16 Dec 11.2 06:42:17 10° W 06:55:41 28° SW 07:07:10 10° S visible
17 Dec 11.5 00:51:51 21° E 00:51:51 21° E 00:56:01 10° E visible
17 Dec 10.3 02:53:15 63° SSE 02:53:15 63° SSE 03:08:25 10° ESE visible
17 Dec 10.6 04:54:40 32° WSW 05:02:55 48° SSW 05:18:08 10° SE visible
18 Dec 11.4 01:08:41 25° E 01:08:41 25° E 01:14:12 10° E visible
18 Dec 10.3 03:10:05 62° S 03:10:05 62° S 03:26:15 10° ESE visible
18 Dec 10.8 05:11:30 26° W 05:20:36 40° SSW 05:35:12 10° SSE visible
19 Dec 11.2 01:25:32 29° ESE 01:25:32 29° ESE 01:32:20 10° E visible
19 Dec 10.3 03:26:57 58° SSW 03:26:57 58° SSW 03:43:56 10° SE visible
19 Dec 11.0 05:28:21 20° W 05:38:11 33° SW 05:51:53 10° SSE visible
